Madison, WI

12:25 PM CDT on September 16, 2019 (GMT -0500)
Dane County Regional-Truax

Weather History for KMSN - August, 2019

Change the Weather History Date:

Sunday, August 25, 2019

  Actual Average Record
Temperature  
Mean Temperature 64 °F 68 °F  
Max Temperature 75 °F 79 °F 94 °F (1948)
Min Temperature 52 °F 58 °F 37 °F (1958)
Degree Days  
Heating Degree Days 1 1  
Month to date heating degree days 5 22  
Since 1 June heating degree days 47 92  
Since 1 July heating degree days 5 32  
Cooling Degree Days 0 4  
Month to date cooling degree days 119 135  
Year to date cooling degree days 560 491  
Since 1 June cooling degree days 540 461  
Growing Degree Days 14 (Base 50)    
Moisture  
Dew Point 55 °F    
Average Humidity 72    
Maximum Humidity 93    
Minimum Humidity 50    
Precipitation  
Precipitation T in 0.13 in 2.30 in (2001)
Month to date precipitation 2.49 3.48  
Year to date precipitation 29.23 24.03  
Snow  
Snow 0.00 in 0.00 in 0.00 in (2018)
Month to date snowfall 0.0 0.0  
Since 1 June snowfall 0.0 0.0  
Since 1 July snowfall 0.0 0.0  
Snow Depth 0.00 in    
Sea Level Pressure  
Sea Level Pressure 30.09 in    
Wind  
Wind Speed 8 mph (ESE)    
Max Wind Speed 17 mph    
Max Gust Speed 24 mph    
Visibility 10 miles    
Events Rain    
T = Trace of Precipitation, MM = Missing Value Source: NWS Daily Summary

Daily Weather History Graph

Daily Weather History Graph

Search for Another Location

Airport or City:

Astronomy

Aug. 25, 2019 Rise Set
Actual Time 6:13 AM CDT 7:44 PM CDT
Civil Twilight 5:43 AM CDT 8:14 PM CDT
Nautical Twilight 5:07 AM CDT 8:50 PM CDT
Astronomical Twilight 4:29 AM CDT 9:28 PM CDT
Moon 12:43 AM CDT (8/25) 4:10 PM CDT (8/25)
Length of Visible Light 14h 30m
Length of Day
13h 30m
Waning Crescent, 29% of the Moon is Illuminated
Aug 25
Waning Crescent
Aug 30
New
Sep 5
First Quarter
Sep 13
Full
Sep 21
Last Quarter

Hourly Weather History & Observations

Time (CDT) Temp. Dew Point Humidity Pressure Visibility Wind Dir Wind Speed Gust Speed Precip Events Conditions
12:53 AM 55.9 °F 51.1 °F 84% 30.19 in 10.0 mi ESE 5.8 mph - N/A   Clear
1:53 AM 54.0 °F 51.1 °F 90% 30.17 in 10.0 mi Calm Calm - N/A   Clear
2:53 AM 54.0 °F 52.0 °F 93% 30.16 in 10.0 mi NE 3.5 mph - N/A   Mostly Cloudy
3:53 AM 54.0 °F 52.0 °F 93% 30.16 in 10.0 mi Calm Calm - N/A   Clear
4:53 AM 55.0 °F 53.1 °F 93% 30.15 in 10.0 mi NE 3.5 mph - N/A   Clear
5:53 AM 54.0 °F 52.0 °F 93% 30.16 in 10.0 mi Calm Calm - N/A   Mostly Cloudy
6:53 AM 55.9 °F 54.0 °F 93% 30.16 in 10.0 mi NE 3.5 mph - N/A   Mostly Cloudy
7:53 AM 59.0 °F 55.9 °F 90% 30.16 in 10.0 mi ENE 3.5 mph - N/A   Mostly Cloudy
8:53 AM 63.0 °F 55.9 °F 78% 30.14 in 10.0 mi SE 8.1 mph - N/A   Mostly Cloudy
9:53 AM 66.9 °F 55.0 °F 66% 30.13 in 10.0 mi ESE 11.5 mph - N/A   Mostly Cloudy
10:53 AM 70.0 °F 55.9 °F 61% 30.13 in 10.0 mi SE 13.8 mph - N/A   Mostly Cloudy
11:53 AM 73.0 °F 57.0 °F 57% 30.10 in 10.0 mi SE 15.0 mph - N/A   Mostly Cloudy
12:53 PM 72.0 °F 55.9 °F 57% 30.09 in 10.0 mi ESE 9.2 mph - N/A   Mostly Cloudy
1:53 PM 75.0 °F 55.9 °F 51% 30.06 in 10.0 mi ESE 12.7 mph - N/A   Mostly Cloudy
2:53 PM 73.0 °F 55.0 °F 53% 30.05 in 10.0 mi ESE 12.7 mph - N/A   Mostly Cloudy
3:53 PM 73.0 °F 55.9 °F 55% 30.03 in 10.0 mi East 10.4 mph - N/A   Overcast
4:53 PM 72.0 °F 57.0 °F 59% 30.01 in 10.0 mi East 12.7 mph - N/A   Overcast
5:53 PM 70.0 °F 55.0 °F 59% 30.01 in 10.0 mi ESE 10.4 mph - 0.00 in   Overcast
6:53 PM 69.1 °F 55.0 °F 61% 30.00 in 10.0 mi ESE 11.5 mph - N/A   Overcast
7:53 PM 66.0 °F 55.9 °F 70% 29.99 in 10.0 mi ESE 8.1 mph - 0.00 in Rain Light Rain
8:53 PM 66.0 °F 55.0 °F 68% 29.99 in 10.0 mi SE 5.8 mph - 0.00 in   Mostly Cloudy
9:53 PM 66.0 °F 55.9 °F 70% 29.99 in 10.0 mi SE 8.1 mph - N/A   Overcast
10:53 PM 64.9 °F 57.0 °F 75% 29.98 in 10.0 mi SE 6.9 mph - N/A   Overcast
11:53 PM 64.9 °F 57.0 °F 75% 29.96 in 10.0 mi SE 6.9 mph - N/A   Overcast